Regional Weather Roundup
Issued by NWS Charleston, SC

Current Version | Previous Version | Graphics & Text | Print | Product List | Glossary On
Versions: 1 2 3 4 5 6 7 8 9 10 11 12 13 14 15 16 17 18 19 20 21 22 23 24 25 26 27 28 29 30 31 32 33 34 35 36 37 38 39 40 41 42 43 44 45 46 47 48 49 50
000
ASUS42 KCHS 030612
RWRCHS

REGIONAL WEATHER ROUNDUP
NATIONAL WEATHER SERVICE CHARLESTON SC
200 AM EDT SUN MAY 03 2015

NOTE: "FAIR" INDICATES FEW OR NO CLOUDS BELOW 12,000 FEET WITH NO
SIGNIFICANT WEATHER AND/OR OBSTRUCTIONS TO VISIBILITY.

NOT ALL STATIONS ARE QUALITY CONTROLLED BY THE NATIONAL
WEATHER SERVICE. USE DATA WITH CAUTION...ESPECIALLY
DEWPOINT OBSERVATIONS.

SCZ027-030-031-034>040-042>050-030700-
...SOUTHEAST SOUTH CAROLINA...

CITY           SKY/WX    TMP DP  RH WIND       PRES   REMARKS
N CHARLESTON   CLEAR     61  57  87 CALM      30.11S
6HR MIN TEMP:  60; 6HR MAX TEMP:  72;

WATERFRONT PRK   N/A     63 N/A N/A W5          N/A
MOUNT PLEASANT FAIR      57  55  94 MISG      30.11S FOG
PINOPOLIS      NOT AVBL
MONCKS CORNER  FAIR      55  52  88 CALM      30.11S FOG
SUMMERVILLE    FAIR      54  54 100 CALM      30.12S
BEAUFORT MCAS  CLEAR     60  56  86 SW3       30.11S
6HR MIN TEMP:  59; 6HR MAX TEMP:  71;

BEAUFORT ARPT  FAIR      61  59  94 CALM      30.11S
HILTON HEAD IS CLEAR     61  57  88 CALM      30.12F
WALTERBORO     CLEAR     57  54  88 CALM      30.12S
ALLENDALE      FAIR      59  54  82 CALM      30.10F

...SOUTHERN MIDLANDS AND PEE DEE...

CITY           SKY/WX    TMP DP  RH WIND       PRES   REMARKS
GEORGETOWN     NOT AVBL
KINGSTREE      NOT AVBL
ORANGEBURG     CLEAR     54  50  86 CALM      30.11S
6HR MIN TEMP:  54; 6HR MAX TEMP:  71;

BARNWELL       FAIR      54  52  94 CALM      30.12R
AIKEN          FAIR      52  46  82 CALM      30.14S
MANNING        FAIR      50  43  76 CALM      30.11S
COLUMBIA       CLEAR     55  49  80 CALM      30.11S
6HR MIN TEMP:  55; 6HR MAX TEMP:  75;

SUMTER         CLEAR     52  47  81 CALM      30.10S
6HR MIN TEMP:  52; 6HR MAX TEMP:  72;

FLORENCE       CLEAR     55  49  80 NE5       30.11S
6HR MIN TEMP:  55; 6HR MAX TEMP:  70;

MYRTLE BEACH   CLEAR     63  57  82 W3        30.13S
N MYRTLE BEACH CLEAR     59  58  96 CALM      30.11S FOG
6HR MIN TEMP:  59; 6HR MAX TEMP:  66;


$$

GAZ063-065-086>088-099>101-113>116-118-119-134>141-150-030700-
...SOUTHEAST GEORGIA...

CITY           SKY/WX    TMP DP  RH WIND       PRES   REMARKS
SAVANNAH ARPT  CLEAR     58  53  84 CALM      30.12S
6HR MIN TEMP:  58; 6HR MAX TEMP:  73;

HUNTER AAF     CLEAR     57  55  93 SW3       30.09F
6HR MIN TEMP:  57; 6HR MAX TEMP:  69;

FORT STEWART   CLEAR     56  53  90 CALM      30.10S
6HR MIN TEMP:  56; 6HR MAX TEMP:  70;

STATESBORO       N/A     54  54 100 CALM      30.12S
SYLVANIA       CLEAR     58  55  89 CALM      30.12S
CLAXTON        FAIR      54  54 100 CALM      30.13S

...CSRA...CENTRAL AND FAR SOUTHEAST GEORGIA...

CITY           SKY/WX    TMP DP  RH WIND       PRES   REMARKS
THOMSON        CLEAR     53  53 100 CALM      30.15S
AUGUSTA-BUSH   CLEAR     50  49  96 CALM      30.10F FOG
6HR MIN TEMP:  50; 6HR MAX TEMP:  59;

AUGUSTA-DANIEL CLEAR     64  46  52 CALM      30.11S
SWAINSBORO     NOT AVBL
VIDALIA        CLEAR     59  55  88 S5        30.12S
EASTMAN        FOG       55  55 100 CALM      30.13F VSB 1
HAZLEHURST     FAIR      62  55  79 S5        30.11S
ALMA           CLEAR     55  51  86 CALM      30.12S
6HR MIN TEMP:  55; 6HR MAX TEMP:  68;

WAYCROSS       CLEAR     62  55  80 CALM      30.12S
JESUP          FAIR      55  54  94 CALM      30.13S
BAXLEY         FAIR      61  55  82 CALM      30.12S
BRUNSWICK      CLOUDY    57  54  88 CALM      30.13S
SAINT SIMONS   CLOUDY    62  56  80 CALM      30.12S
6HR MIN TEMP:  62; 6HR MAX TEMP:  68;


$$

SCZ027-028-034-036>038-045-046-048>050-GAZ119-141-030700-
...LAKE AND SUPPLEMENTAL COASTAL OBSERVATIONS...

STATION/POSITION TIME  TEMP    WIND        PRES    WAVE   SWELL
                       AIR SEA DIR/SP/G            HT/PER HT/PER/DIR
                 (UTC) (F)     (DEG/KT/KT) (MB)    (FT/S) (FT/S/D)
UPR LAKE MARION  NOT AVBL
WINYAH BAY       NOT AVBL
LAKE MURRAY      0500   62      CALM  /  1 1019.3R
ACE BASIN NERRS  NOT AVBL
FORT PULASKI     0500   65 69  190/  3/  4 1020.3S
SAPELO ISLAND    0500   62     170/  3     1020.0S

$$

ANZ835-935-AMZ111-154-330-350-352-354-370-450-454-472-030700-
...C-MAN AND BUOY OBSERVATIONS...

STATION/POSITION TIME  TEMP    WIND        PRES    WAVE   SWELL
                       AIR SEA DIR/SP/G            HT/PER HT/PER/DIR
                 (UTC) (F)     (DEG/KT/KT) (MB)    (FT/S) (FT/S/D)
BUOY 41004       0550   70 71  220/  6/  6 1019.5F   3/ 8   2/ 8
BUOY 41008       0550   69 69  200/  8/  8 1020.2S   3/13   3/ 50/13
FOLLY BEACH CMAN 0500   66     240/  6/  8 1019.5R
CAPERS NEARSHORE 0508   68     250/  8/ 10 1019.6R
FRIPP NEARSHORE  0500   69     230/ 12/ 14 1019.2S


STATION/POSITION TIME  TEMP    WIND        PRES    WAVE   SWELL
                       AIR SEA DIR/SP/G            HT/PER HT/PER/DIR
                 (UTC) (F)     (DEG/KT/KT) (MB)    (FT/S) (FT/S/D)
5E ST. MARYS GA  0521      71                N/A     3/13   2/100/13
FRYING PAN BUOY  0550   69 71  260/  4/  6 1020.4F   3/10   3/ 70/10
BUOY 41025       0550   53     300/  4/  6 1018.9F   6/11   7/ 60/11
CAPE LOOKOUT NC  0500   60        CALM     1019.5R
BUOY 41002       0550   65 69  360/ 16/ 21 1018.5S  10/11   8/ 10/11
BUOY 41010       0520   72 78   30/  8/ 12 1019.4R
ST AUGUSTINE FL  0600   70 70   90/  6/  6 1020.4F


$$



USA.gov is the U.S. government's official web portal to all federal, state and local government web resources and services.